GW6365 Weather Reports


time (UTC)temp
F
wind
direction
speed
knots
gust
knots
rain 1hr
in
rain 24hr
in
rain mn
in
humidity
%
barometer
mb
20260504035602 83 257 0.9 3.5 0.00 0.00 0.00 72 999.6
20260504035104 83 146 0.0 3.5 0.00 0.00 0.00 72 999.5
20260504034604 83 143 0.0 7.0 0.00 0.00 0.00 72 999.5
20260504034059 83 286 3.5 8.7 0.00 0.00 0.00 72 999.3
20260504033603 83 292 3.5 7.0 0.00 0.00 0.00 72 999.3
20260504033100 83 274 1.7 7.0 0.00 0.00 0.00 73 999.3
20260504032600 83 257 1.7 7.0 0.00 0.00 0.00 73 999.2
20260504032102 83 302 1.7 7.8 0.00 0.00 0.00 72 999.1
20260504032001 83 290 2.6 7.8 0.00 0.00 0.00 72 999.1
20260504031625 83 324 1.7 7.8 0.00 0.00 0.00 72 999.0
20260504031100 83 309 2.6 10.4 0.00 0.00 0.00 72 998.6
20260504030559 83 248 5.2 11.3 0.00 0.00 0.00 72 998.6
20260504030100 83 288 5.2 14.8 0.00 0.00 0.00 72 998.4
20260504025600 83 227 8.7 14.8 0.00 0.00 0.00 71 998.2
20260504025059 83 278 5.2 12.2 0.00 0.00 0.00 71 998.3
20260504024605 83 239 5.2 11.3 0.00 0.00 0.00 70 998.1
20260504024101 83 317 3.5 11.3 0.00 0.00 0.00 70 998.0
20260504023501 83 249 6.1 15.6 0.00 0.00 0.00 68 998.2
20260504023101 83 215 7.8 15.6 0.00 0.00 0.00 69 998.1
20260504022601 83 234 7.8 16.5 0.00 0.00 0.00 69 997.8
20260504022101 83 236 8.7 17.4 0.00 0.00 0.00 70 997.7
20260504021601 83 294 10.4 17.4 0.00 0.00 0.00 70 997.7
20260504021103 83 332 9.6 16.5 0.00 0.00 0.00 70 997.7
20260504021001 83 293 8.7 16.5 0.00 0.00 0.00 69 997.6
20260504020601 83 273 11.3 17.4 0.00 0.00 0.00 70 997.6
20260504020001 83 296 9.6 17.4 0.00 0.00 0.00 71 997.4
20260504015604 83 306 9.6 19.1 0.00 0.00 0.00 71 997.3
20260504015000 83 238 12.2 19.1 0.00 0.00 0.00 71 997.2
20260504014604 83 238 9.6 14.8 0.00 0.00 0.00 71 997.2
20260504014059 83 254 8.7 18.2 0.00 0.00 0.00 70 997.3
20260504013600 83 229 11.3 17.4 0.00 0.00 0.00 69 997.2
20260504013501 83 232 10.4 15.6 0.00 0.00 0.00 69 997.2
20260504013101 83 288 8.7 13.9 0.00 0.00 0.00 70 997.3
20260504012603 83 278 9.6 17.4 0.00 0.00 0.00 70 997.3
20260504012100 83 251 8.7 17.4 0.00 0.00 0.00 70 997.3
20260504011501 83 263 9.6 17.4 0.00 0.00 0.00 70 997.1
20260504011059 83 263 10.4 17.4 0.00 0.00 0.00 69 997.1
20260504010503 83 278 7.8 13.9 0.00 0.00 0.00 69 997.0
20260504010100 83 273 7.8 14.8 0.00 0.00 0.00 71 997.0
20260504010002 83 296 7.0 14.8 0.00 0.00 0.00 71 997.0
20260504005600 84 273 7.8 14.8 0.00 0.00 0.00 70 997.0
20260504005501 84 239 7.8 13.9 0.00 0.00 0.00 70 997.0
20260504005100 84 211 8.7 14.8 0.00 0.00 0.00 70 996.8
20260504005001 84 219 8.7 14.8 0.00 0.00 0.00 70 996.8
20260504004600 84 225 7.0 18.2 0.00 0.00 0.00 70 996.8
20260504004059 84 252 9.6 18.2 0.00 0.00 0.00 69 996.8
20260504003559 84 290 7.8 14.8 0.00 0.00 0.00 69 996.8
20260504003502 84 271 8.7 15.6 0.00 0.00 0.00 69 996.9
20260504003100 84 285 7.8 15.6 0.00 0.00 0.00 68 996.6
20260504002600 84 240 7.0 15.6 0.00 0.00 0.00 69 996.5
20260504002100 84 249 10.4 15.6 0.00 0.00 0.00 68 996.7
20260504001602 84 267 8.7 15.6 0.00 0.00 0.00 68 996.9
20260504001501 84 264 9.6 15.6 0.00 0.00 0.00 68 996.7
20260504001100 84 227 9.6 14.8 0.00 0.00 0.00 67 997.0
20260504001001 84 265 8.7 14.8 0.00 0.00 0.00 67 996.8
20260504000601 84 269 7.8 14.8 0.00 0.00 0.00 67 996.8
20260504000105 84 277 7.8 13.0 0.00 0.00 0.00 65 996.9
20260503235559 85 277 5.2 13.0 0.00 0.00 0.00 67 996.8
20260503235102 85 236 8.7 15.6 0.00 0.00 0.00 67 996.8
20260503234628 85 299 10.4 16.5 0.00 0.00 0.00 67 996.6
20260503234103 85 236 8.7 16.5 0.00 0.00 0.00 65 996.5
20260503233559 85 281 7.8 18.2 0.00 0.00 0.00 65 996.4
20260503233059 85 281 8.7 18.2 0.00 0.00 0.00 66 996.4
20260503232559 85 232 8.7 19.1 0.00 0.00 0.00 66 996.5
20260503232059 85 244 8.7 16.5 0.00 0.00 0.00 67 996.5
20260503231559 85 105 8.7 17.4 0.00 0.00 0.00 66 996.5
20260503231100 85 264 10.4 17.4 0.00 0.00 0.00 66 996.5
20260503230602 85 285 8.7 16.5 0.00 0.00 0.00 67 996.5
20260503230059 86 262 9.6 16.5 0.00 0.00 0.00 66 996.4
20260503225559 86 246 9.6 15.6 0.00 0.00 0.00 64 996.4
20260503225059 87 273 7.8 14.8 0.00 0.00 0.00 64 996.6
20260503224659 87 271 7.0 14.8 0.00 0.00 0.00 62 996.6
20260503224102 87 251 6.1 15.6 0.00 0.00 0.00 62 996.6
20260503223559 86 286 8.7 15.6 0.00 0.00 0.00 62 996.5
20260503223059 86 248 9.6 15.6 0.00 0.00 0.00 58 996.6
20260503222600 87 261 7.8 15.6 0.00 0.00 0.00 64 996.7
20260503222059 87 209 8.7 15.6 0.00 0.00 0.00 64 996.6
20260503221601 86 224 9.6 15.6 0.00 0.00 0.00 62 996.7
20260503221059 86 259 9.6 15.6 0.00 0.00 0.00 62 996.8
20260503220559 87 257 8.7 16.5 0.00 0.00 0.00 63 996.8
20260503220059 87 238 7.8 16.5 0.00 0.00 0.00 62 996.9
20260503220002 86 286 8.7 16.5 0.00 0.00 0.00 62 996.9
20260503215600 87 286 7.0 15.6 0.00 0.00 0.00 65 996.9
20260503215100 87 261 8.7 15.6 0.00 0.00 0.00 64 996.8
20260503215001 87 272 7.0 15.6 0.00 0.00 0.00 64 996.8
20260503214600 87 263 7.8 15.6 0.00 0.00 0.00 64 996.9
20260503214502 87 274 7.0 15.6 0.00 0.00 0.00 65 997.0
20260503214100 87 246 9.6 15.6 0.00 0.00 0.00 64 996.9
20260503214002 87 280 9.6 18.2 0.00 0.00 0.00 63 997.0
20260503213600 86 253 9.6 18.2 0.00 0.00 0.00 65 997.0
20260503213002 87 272 9.6 14.8 0.00 0.00 0.00 63 997.1
20260503212502 87 239 8.7 14.8 0.00 0.00 0.00 63 997.2
20260503212100 87 269 7.8 14.8 0.00 0.00 0.00 63 997.1
20260503212001 87 281 8.7 14.8 0.00 0.00 0.00 64 997.1
20260503211500 87 232 7.0 13.0 0.00 0.00 0.00 66 997.2
20260503211100 87 290 6.1 14.8 0.00 0.00 0.00 66 997.2
20260503210600 86 244 9.6 14.8 0.00 0.00 0.00 67 997.4
20260503210104 87 271 7.8 15.6 0.00 0.00 0.00 67 997.3
20260503210002 87 355 9.6 15.6 0.00 0.00 0.00 67 997.4
20260503205600 87 245 8.7 15.6 0.00 0.00 0.00 67 997.3
20260503205100 87 289 7.0 17.4 0.00 0.00 0.00 68 997.6
20260503204600 87 256 7.8 17.4 0.00 0.00 0.00 68 997.6
20260503204058 87 282 7.8 14.8 0.00 0.00 0.00 65 997.7
20260503203559 87 324 7.8 15.6 0.00 0.00 0.00 66 997.7
20260503203100 87 259 7.0 15.6 0.00 0.00 0.00 65 997.7
20260503202559 87 252 7.0 15.6 0.00 0.00 0.00 64 997.8
20260503202100 87 267 7.8 11.3 0.00 0.00 0.00 66 997.8
20260503201600 87 309 6.1 13.0 0.00 0.00 0.00 66 997.8
20260503201103 87 240 7.8 15.6 0.00 0.00 0.00 66 997.9
20260503200558 87 282 7.8 15.6 0.00 0.00 0.00 66 998.0
20260503200059 87 264 7.8 14.8 0.00 0.00 0.00 66 998.1
20260503195603 88 240 6.1 13.9 0.00 0.00 0.00 64 998.0
20260503195100 87 300 7.0 13.9 0.00 0.00 0.00 66 998.1
20260503194603 87 298 6.1 13.0 0.00 0.00 0.00 67 998.1
20260503194059 87 261 7.0 13.0 0.00 0.00 0.00 63 998.2
20260503193559 86 259 6.1 13.0 0.00 0.00 0.00 66 998.3
20260503193059 86 238 5.2 13.0 0.00 0.00 0.00 67 998.5
20260503192559 87 244 6.1 13.9 0.00 0.00 0.00 67 998.5
20260503192059 87 250 6.1 13.0 0.00 0.00 0.00 67 998.6
20260503191603 87 242 7.8 13.0 0.00 0.00 0.00 66 998.7
20260503191103 87 251 7.0 13.0 0.00 0.00 0.00 67 998.5
20260503190600 87 215 6.1 13.9 0.00 0.00 0.00 67 998.7
20260503185559 87 295 7.8 13.9 0.00 0.00 0.00 65 998.7
20260503185103 87 245 7.0 13.9 0.00 0.00 0.00 63 998.9
20260503184600 87 202 5.2 14.8 0.00 0.00 0.00 62 998.9
20260503184100 87 248 7.8 14.8 0.00 0.00 0.00 63 999.1
20260503183559 87 244 6.1 13.0 0.00 0.00 0.00 58 999.2
20260503183100 87 209 4.3 13.9 0.00 0.00 0.00 59 999.2
20260503182559 87 208 7.0 13.9 0.00 0.00 0.00 62 999.2
20260503182059 87 247 7.0 13.0 0.00 0.00 0.00 61 999.3
20260503181600 87 207 7.8 13.9 0.00 0.00 0.00 60 999.5
20260503181059 86 279 6.1 13.9 0.00 0.00 0.00 63 999.6
20260503180559 86 269 6.1 12.2 0.00 0.00 0.00 58 999.6
20260503180107 86 292 8.7 12.2 0.00 0.00 0.00 59 999.5
20260503175558 87 242 7.8 12.2 0.00 0.00 0.00 57 999.6
20260503175059 87 286 6.1 10.4 0.00 0.00 0.00 60 999.8
20260503174601 87 267 7.8 10.4 0.00 0.00 0.00 58 999.9
20260503174101 87 292 5.2 10.4 0.00 0.00 0.00 59 1000.0
20260503173559 87 221 5.2 10.4 0.00 0.00 0.00 54 1000.1
20260503173111 87 261 5.2 9.6 0.00 0.00 0.00 55 1000.1
20260503172602 87 208 4.3 10.4 0.00 0.00 0.00 57 1000.2
20260503172059 87 273 5.2 8.7 0.00 0.00 0.00 57 1000.2
20260503171600 87 327 3.5 9.6 0.00 0.00 0.00 58 1000.3
20260503171100 88 195 5.2 10.4 0.00 0.00 0.00 56 1000.4
20260503170600 88 224 5.2 9.6 0.00 0.00 0.00 55 1000.5
20260503150558 86 271 0.0 3.5 0.00 0.00 0.00 51 1000.1
20260503140110 82 44 0.0 2.6 0.00 0.00 0.00 55 999.2
20260503131058 78 34 0.0 1.7 0.00 0.00 0.00 68 998.6
20260503130601 78 89 0.0 0.0 0.00 0.00 0.00 70 998.5
20260503110558 77 329 0.0 0.0 0.00 0.00 0.00 69 997.4
20260503110110 77 329 0.0 0.0 0.00 0.00 0.00 69 997.5
20260503090105 77 270 0.0 2.6 0.00 0.00 0.00 73 998.4
20260503081559 77 272 0.0 1.7 0.00 0.00 0.00 75 998.9
20260503081059 77 272 0.9 2.6 0.00 0.00 0.00 75 998.9
20260503080559 77 291 0.9 2.6 0.00 0.00 0.00 75 999.0
20260503072601 78 288 0.9 2.6 0.00 0.00 0.00 75 999.1
20260503072058 78 290 0.9 2.6 0.00 0.00 0.00 76 999.2
20260503071614 78 345 0.0 2.6 0.00 0.00 0.00 76 999.1
20260503071058 78 279 0.9 2.6 0.00 0.00 0.00 76 999.1
20260503070601 78 278 0.9 2.6 0.00 0.00 0.00 76 999.0
20260503060128 78 284 0.0 1.7 0.00 0.00 0.00 77 999.3
20260503055001 78 271 0.9 1.7 0.00 0.00 0.00 77 999.3
20260503054502 78 292 0.9 2.6 0.00 0.00 0.00 77 999.3
20260503054001 78 306 0.9 2.6 0.00 0.00 0.00 77 999.2
20260503053501 78 305 0.9 2.6 0.00 0.00 0.00 77 999.3
20260503053002 78 282 0.9 2.6 0.00 0.00 0.00 77 999.3
20260503052501 78 271 0.0 3.5 0.00 0.00 0.00 77 999.3
20260503052003 78 293 0.9 3.5 0.00 0.00 0.00 78 999.2
20260503051502 78 277 1.7 3.5 0.00 0.00 0.00 78 999.1
20260503051001 78 243 0.9 2.6 0.00 0.00 0.00 77 999.2
20260503050504 78 298 0.0 1.7 0.00 0.00 0.00 77 999.1
20260503050001 79 273 0.0 1.7 0.00 0.00 0.00 78 999.0
20260503045601 79 283 0.0 1.7 0.00 0.00 0.00 77 998.8
20260503045503 79 296 0.0 1.7 0.00 0.00 0.00 77 998.8
20260503045101 79 300 0.0 2.6 0.00 0.00 0.00 77 998.7
20260503044600 79 291 0.0 2.6 0.00 0.00 0.00 77 998.5
20260503044100 79 295 0.0 2.6 0.00 0.00 0.00 77 998.6
20260503043600 79 307 0.0 2.6 0.00 0.00 0.00 77 998.5
20260503043105 79 274 1.7 2.6 0.00 0.00 0.00 77 998.6
20260503042602 79 291 1.7 2.6 0.00 0.00 0.00 77 998.5
20260503042100 79 276 0.9 2.6 0.00 0.00 0.00 77 998.4
20260503041600 79 280 0.0 2.6 0.00 0.00 0.00 77 998.4
20260503041059 79 252 0.0 2.6 0.00 0.00 0.00 77 998.3
20260503040600 79 270 0.0 1.7 0.00 0.00 0.00 77 998.1
20260503040002 79 292 0.0 0.0 0.00 0.00 0.00 77 998.2